Liberal, KS

2:28 AM CST on February 08, 2016 (GMT -0600)
Liberal Municipal

Weather History for KLBL - February, 2014

Change the Weather History Date:

Wednesday, February 12, 2014

  Actual Average Record
Temperature  
Mean Temperature 28 °F -  
Max Temperature 39 °F 52 °F 87 °F (1962)
Min Temperature 17 °F 23 °F -2 °F (1986)
Degree Days  
Heating Degree Days 37    
Moisture  
Dew Point 22 °F    
Average Humidity 73    
Maximum Humidity 86    
Minimum Humidity 61    
Precipitation  
Precipitation 0.00 in - - ()
Sea Level Pressure  
Sea Level Pressure 30.06 in    
Wind  
Wind Speed 10 mph (WNW)    
Max Wind Speed 18 mph    
Max Gust Speed 23 mph    
Visibility 10 miles    
Events      
Averages and records for this station are not official NWS values.
T = Trace of Precipitation, MM = Missing Value Source: NWS Daily Summary

Daily Weather History Graph

Daily Weather History Graph

Search for Another Location

Airport or City:

Trip Planner

Search our weather history database for the weather conditions in past years. The results will help you decide how hot, cold, wet, or windy it might be!

Date:

Astronomy

Feb. 12, 2014 Rise Set
Actual Time 7:35 AM CST 6:20 PM CST
Civil Twilight 7:09 AM CST 6:47 PM CST
Nautical Twilight 6:38 AM CST 7:18 PM CST
Astronomical Twilight 6:08 AM CST 7:48 PM CST
Moon 4:37 PM CST (2/12) 5:52 AM CST (2/12)
Length of Visible Light 11h 38m
Length of Day
10h 45m
Waxing Gibbous, 95% of the Moon is Illuminated
Feb 12
Waxing Gibbous
Feb 14
Full
Feb 22
Last Quarter
Mar 1
New
Mar 8
First Quarter

Hourly Weather History & Observations

Time (CST) Temp. Windchill Dew Point Humidity Pressure Visibility Wind Dir Wind Speed Gust Speed Precip Events Conditions
12:15 AM 23.0 °F 12.4 °F 17.6 °F 80% 30.05 in 10.0 mi South 10.4 mph - N/A   Clear
12:35 AM 21.2 °F 11.7 °F 17.6 °F 86% 30.06 in 10.0 mi South 8.1 mph - N/A   Clear
12:55 AM 21.2 °F 10.9 °F 15.8 °F 80% 30.06 in 10.0 mi South 9.2 mph - N/A   Clear
1:15 AM 19.4 °F 9.5 °F 14.0 °F 80% 30.05 in 10.0 mi South 8.1 mph - N/A   Clear
1:35 AM 19.4 °F 10.4 °F 14.0 °F 80% 30.04 in 10.0 mi South 6.9 mph - N/A   Clear
1:55 AM 19.4 °F 10.4 °F 12.2 °F 74% 30.05 in 10.0 mi SSW 6.9 mph - N/A   Clear
2:15 AM 17.6 °F 9.3 °F 12.2 °F 79% 30.05 in 10.0 mi SW 5.8 mph - N/A   Clear
2:35 AM 17.6 °F 8.2 °F 10.4 °F 73% 30.04 in 10.0 mi SSW 6.9 mph - N/A   Clear
2:55 AM 17.6 °F 9.3 °F 14.0 °F 86% 30.04 in 10.0 mi SW 5.8 mph - N/A   Clear
3:15 AM 17.6 °F 9.3 °F 14.0 °F 86% 30.05 in 10.0 mi WSW 5.8 mph - N/A   Clear
3:35 AM 17.6 °F 9.3 °F 14.0 °F 86% 30.05 in 10.0 mi West 5.8 mph - N/A   Clear
3:55 AM 17.6 °F 8.2 °F 12.2 °F 79% 30.05 in 10.0 mi West 6.9 mph - N/A   Clear
4:15 AM 19.4 °F 6.6 °F 10.4 °F 68% 30.07 in 10.0 mi NW 12.7 mph - N/A   Clear
4:35 AM 23.0 °F 12.4 °F 17.6 °F 80% 30.06 in 10.0 mi NNW 10.4 mph - N/A   Clear
4:55 AM 23.0 °F 12.4 °F 17.6 °F 80% 30.06 in 10.0 mi NNW 10.4 mph - N/A   Clear
5:15 AM 24.8 °F 12.9 °F 19.4 °F 80% 30.07 in 10.0 mi NNW 13.8 mph - N/A   Clear
5:35 AM 26.6 °F 13.8 °F 21.2 °F 80% 30.07 in 10.0 mi NNW 17.3 mph - N/A   Clear
5:55 AM 26.6 °F 14.3 °F 21.2 °F 80% 30.09 in 10.0 mi NNW 16.1 mph - N/A   Clear
6:15 AM 28.4 °F 16.2 °F 21.2 °F 74% 30.10 in 10.0 mi NNW 17.3 mph - N/A   Clear
6:35 AM 28.4 °F 16.2 °F 21.2 °F 74% 30.11 in 10.0 mi NNW 17.3 mph - N/A   Clear
6:55 AM 28.4 °F 15.8 °F 21.2 °F 74% 30.12 in 10.0 mi NNW 18.4 mph - N/A   Clear
7:15 AM 28.4 °F 16.6 °F 21.2 °F 74% 30.13 in 10.0 mi North 16.1 mph - N/A   Clear
7:35 AM 28.4 °F 17.0 °F 21.2 °F 74% 30.14 in 10.0 mi North 15.0 mph - N/A   Clear
7:55 AM 28.4 °F 17.0 °F 21.2 °F 74% 30.15 in 10.0 mi NNW 15.0 mph - N/A   Clear
8:15 AM 28.4 °F 18.0 °F 21.2 °F 74% 30.16 in 10.0 mi NNW 12.7 mph - N/A   Clear
8:35 AM 28.4 °F 18.5 °F 21.2 °F 74% 30.16 in 10.0 mi NW 11.5 mph - N/A   Clear
8:55 AM 28.4 °F 18.5 °F 21.2 °F 74% 30.17 in 10.0 mi NW 11.5 mph - N/A   Clear
9:15 AM 30.2 °F 19.8 °F 23.0 °F 75% 30.17 in 10.0 mi NNW 13.8 mph - N/A   Clear
9:35 AM 30.2 °F 18.1 °F 24.8 °F 80% 30.17 in 10.0 mi NNW 18.4 mph - N/A   Clear
9:55 AM 32.0 °F 20.8 °F 24.8 °F 75% 30.18 in 10.0 mi NNW 17.3 mph 23.0 mph N/A   Clear
10:15 AM 33.8 °F 23.2 °F 26.6 °F 75% 30.18 in 10.0 mi North 17.3 mph - N/A   Clear
10:35 AM 33.8 °F 22.8 °F 26.6 °F 75% 30.18 in 10.0 mi North 18.4 mph - N/A   Clear
10:55 AM 33.8 °F 22.8 °F 26.6 °F 75% 30.19 in 10.0 mi NNW 18.4 mph - N/A   Clear
11:15 AM 35.6 °F 26.6 °F 26.6 °F 70% 30.19 in 10.0 mi NNW 13.8 mph - N/A   Clear
11:35 AM 35.6 °F 28.6 °F 26.6 °F 70% 30.20 in 10.0 mi NNW 9.2 mph - N/A   Clear
11:55 AM 35.6 °F 28.0 °F 26.6 °F 70% 30.19 in 10.0 mi NNW 10.4 mph - N/A   Clear
12:15 PM 35.6 °F 27.5 °F 26.6 °F 70% 30.18 in 10.0 mi NW 11.5 mph - N/A   Clear
12:35 PM 37.4 °F 29.8 °F 26.6 °F 65% 30.18 in 10.0 mi NNW 11.5 mph - N/A   Clear
12:55 PM 37.4 °F 31.4 °F 26.6 °F 65% 30.16 in 10.0 mi NW 8.1 mph - N/A   Clear
1:15 PM 37.4 °F 32.1 °F 26.6 °F 65% 30.13 in 10.0 mi NNW 6.9 mph - N/A   Clear
1:35 PM 37.4 °F 31.4 °F 26.6 °F 65% 30.13 in 10.0 mi NNW 8.1 mph - N/A   Clear
1:55 PM 37.4 °F 32.1 °F 26.6 °F 65% 30.10 in 10.0 mi North 6.9 mph - N/A   Clear
2:15 PM 37.4 °F 32.8 °F 26.6 °F 65% 30.09 in 10.0 mi North 5.8 mph - N/A   Clear
2:35 PM 37.4 °F 33.8 °F 26.6 °F 65% 30.09 in 10.0 mi NNW 4.6 mph - N/A   Clear
2:55 PM 37.4 °F 33.8 °F 26.6 °F 65% 30.07 in 10.0 mi North 4.6 mph - N/A   Clear
3:15 PM 39.2 °F 35.9 °F 26.6 °F 61% 30.06 in 10.0 mi North 4.6 mph - N/A   Clear
3:35 PM 39.2 °F 37.0 °F 26.6 °F 61% 30.05 in 10.0 mi NE 3.5 mph - N/A   Clear
3:55 PM 39.2 °F 37.0 °F 26.6 °F 61% 30.04 in 10.0 mi NE 3.5 mph - N/A   Clear
4:15 PM 39.2 °F 37.0 °F 26.6 °F 61% 30.04 in 10.0 mi ENE 3.5 mph - N/A   Clear
4:35 PM 39.2 °F 34.2 °F 26.6 °F 61% 30.02 in 10.0 mi East 6.9 mph - N/A   Clear
4:55 PM 39.2 °F 33.6 °F 26.6 °F 61% 30.02 in 10.0 mi ESE 8.1 mph - N/A   Clear
5:15 PM 39.2 °F 33.6 °F 26.6 °F 61% 30.02 in 10.0 mi SE 8.1 mph - N/A   Clear
5:35 PM 35.6 °F 29.2 °F 26.6 °F 70% 30.02 in 10.0 mi South 8.1 mph - N/A   Clear
5:55 PM 35.6 °F 28.6 °F 24.8 °F 65% 30.02 in 10.0 mi South 9.2 mph - N/A   Clear
6:15 PM 33.8 °F 26.4 °F 24.8 °F 70% 30.00 in 10.0 mi South 9.2 mph - N/A   Clear
6:35 PM 32.0 °F 24.2 °F 24.8 °F 75% 30.00 in 10.0 mi South 9.2 mph - N/A   Clear
6:55 PM 32.0 °F 24.2 °F 24.8 °F 75% 30.00 in 10.0 mi SSE 9.2 mph - N/A   Clear
7:15 PM 32.0 °F 24.2 °F 24.8 °F 75% 30.00 in 10.0 mi SSE 9.2 mph - N/A   Clear
7:35 PM 30.2 °F 21.3 °F 23.0 °F 75% 29.97 in 10.0 mi SSE 10.4 mph - N/A   Clear
7:55 PM 30.2 °F 20.8 °F 23.0 °F 75% 29.95 in 10.0 mi SSE 11.5 mph - N/A   Clear
8:15 PM 30.2 °F 21.9 °F 23.0 °F 75% 29.96 in 10.0 mi SSE 9.2 mph - N/A   Clear
8:35 PM 30.2 °F 21.3 °F 21.2 °F 69% 29.94 in 10.0 mi SSE 10.4 mph - N/A   Clear
8:55 PM 30.2 °F 21.9 °F 21.2 °F 69% 29.94 in 10.0 mi SSE 9.2 mph - N/A   Clear
9:15 PM 28.4 °F 20.4 °F 21.2 °F 74% 29.93 in 10.0 mi SSE 8.1 mph - N/A   Clear
9:35 PM 28.4 °F 22.2 °F 21.2 °F 74% 29.93 in 10.0 mi SSE 5.8 mph - N/A   Clear
9:55 PM 26.6 °F 19.1 °F 21.2 °F 80% 29.92 in 10.0 mi SSE 6.9 mph - N/A   Clear
10:15 PM 26.6 °F 19.1 °F 21.2 °F 80% 29.92 in 10.0 mi South 6.9 mph - N/A   Clear
10:35 PM 26.6 °F 18.2 °F 21.2 °F 80% 29.91 in 10.0 mi South 8.1 mph - N/A   Clear
10:55 PM 26.6 °F 18.2 °F 21.2 °F 80% 29.89 in 10.0 mi South 8.1 mph - N/A   Clear
11:15 PM 26.6 °F 18.2 °F 21.2 °F 80% 29.89 in 10.0 mi SSW 8.1 mph - N/A   Clear
11:35 PM 28.4 °F 19.7 °F 23.0 °F 80% 29.89 in 10.0 mi South 9.2 mph - N/A   Clear
11:55 PM 28.4 °F 19.1 °F 23.0 °F 80% 29.89 in 10.0 mi South 10.4 mph - N/A   Clear